Station PSLC1 - 9412110 - Port San Luis, CA Image indicating link to RSS feed of recent meteorological observations for station PSLC1


Conditions at PSLC1 as of
(8:00 pm PDT on 06/16/2024)
0300 GMT on 06/17/2024:
     

Click on the graph icon in the table below to see a time series plot of the last five days of that observation.

5-day plot - Wind Direction Wind Direction (WDIR):ENE ( 60 deg true )
5-day plot - Wind Speed Wind Speed (WSPD): 2.9 kts
5-day plot - Wind Gust Wind Gust (GST): 4.1 kts
5-day plot - Atmospheric Pressure Atmospheric Pressure (PRES):29.78 in
5-day plot - Pressure Tendency Pressure Tendency (PTDY):+0.04 in ( Rising )
5-day plot - Air Temperature Air Temperature (ATMP): 63.0 °F
5-day plot - Water Temperature Water Temperature (WTMP): 54.5 °F
5-day plot - Wind Speed at 10 Meters Wind Speed at 10 meters (WSPD10M): 3.9 kts
5-day plot - Wind Speed at 20 Meters Wind Speed at 20 meters (WSPD20M): 3.9 kts
5-day plot -  Wind Speed, Wind Gust and Atmospheric Pressure Combined plot of Wind Speed, Gust, and Air Pressure
NOS Water Level Observation Network Water Level
Previous observations
TIME
(PDT)
5-day plot - Wind Direction
WDIR
 
5-day plot - Wind Speed
WSPD
kts
5-day plot - Wind Gust
GST
kts
5-day plot - Wave Height
WVHT
ft
5-day plot - Dominant Wave Period
DPD
sec
5-day plot - Average Wave Period
APD
sec
5-day plot - Mean Wave Direction
MWD
 
5-day plot - Atmospheric Pressure
PRES
in
5-day plot - Pressure Tendency
PTDY
in
5-day plot - Air Temperature
ATMP
°F
5-day plot - Water Temperature
WTMP
°F
5-day plot - Dew Point
DEWP
°F
5-day plot - Salinity
SAL
psu
5-day plot - Visibility
VIS
nmi
5-day plot - Tide (above MLLW)
TIDE
ft
2024-06-16 07:54 pm NE 2.9 4.1----29.78- 63.5 54.5----
2024-06-16 07:48 pmNNE 1.9 2.9----29.78- 64.8 54.5----
2024-06-16 07:42 pm NE 2.9 4.1----29.77- 65.1 54.5----
2024-06-16 07:36 pm N 4.1 5.1----29.77- 65.1 54.5----
2024-06-16 07:30 pm N 4.1 5.1----29.77- 66.2 54.7----
2024-06-16 07:24 pm N 1.9 4.1----29.77- 66.7 54.7----
2024-06-16 07:18 pmNNE 1.9 4.1----29.77- 67.3 54.7----
2024-06-16 07:12 pm N 1.9 2.9----29.76- 67.1 54.9----
2024-06-16 07:06 pm SW 1.0 1.9----29.76- 67.5 54.9----
2024-06-16 07:00 pmWSW 1.0 5.1----29.76+0.02 68.5 54.9----
2024-06-16 06:54 pm S 2.9 5.1----29.76- 66.9 54.9----
2024-06-16 06:48 pmWSW 6.0 9.9----29.76- 69.1 55.0----
2024-06-16 06:42 pm W 8.9 17.1----29.76- 69.1 55.0----
2024-06-16 06:36 pm W 12.0 18.1----29.75- 68.5 55.2----
2024-06-16 06:30 pm W 9.9 20.0------ 69.1 55.2----
2024-06-16 06:24 pm W 18.1 22.9------ 67.5 55.4----
2024-06-16 06:18 pm W 18.1 22.9------ 68.0 55.4----
2024-06-16 06:12 pm W 18.1 22.9------ 69.8 55.4----
2024-06-16 06:06 pm W 21.0 27.0------ 68.5 55.6----
2024-06-16 06:00 pm W 22.0 28.0----29.74-0.01- 55.6----
2024-06-16 05:54 pm W 22.9 28.0----29.74-- 55.8----
2024-06-16 05:48 pm W 22.9 28.0----29.73-- 55.8----
2024-06-16 05:42 pm W 22.9 26.0----29.74-- 55.8----
2024-06-16 05:36 pm W 22.9 27.0----29.74-- 55.9----
2024-06-16 05:30 pm W 25.1 29.9----29.73-- 55.8----
2024-06-16 05:24 pm W 24.1 28.9----29.73-- 55.9----
2024-06-16 05:18 pm W 26.0 28.9----29.73- 68.4 55.9----
2024-06-16 05:12 pm W 25.1 28.9----29.74- 68.5 56.1----
2024-06-16 05:06 pm W 26.0 29.9----29.73- 67.3 56.3----
2024-06-16 05:00 pm W 27.0 32.1----29.73-0.03 67.8 56.5----
2024-06-16 04:54 pm W 27.0 31.1----29.73- 67.6 56.7----
2024-06-16 04:48 pm W 26.0 29.9----29.73- 69.6 56.7----
2024-06-16 04:42 pm W 28.0 29.9----29.73- 69.4 56.8----
2024-06-16 04:36 pm W 27.0 31.1----29.73- 70.0 57.2----
2024-06-16 04:30 pm W 27.0 28.9----29.74- 69.6 57.2----
2024-06-16 04:24 pm W 25.1 31.1----29.74- 71.6 57.4----
2024-06-16 04:18 pm W 25.1 28.9----29.74- 72.0 57.6----
2024-06-16 04:12 pm W 27.0 31.1----29.74- 72.0 57.6----
2024-06-16 04:06 pm W 26.0 29.9----29.74- 71.6 57.6----
2024-06-16 04:00 pm W 25.1 28.9----29.74-0.05- 57.7----
2024-06-16 03:54 pm W 26.0 29.9----29.74-- 57.9----
2024-06-16 03:48 pm W 24.1 28.0----29.75- 71.6 57.9----
2024-06-16 03:42 pm W 25.1 28.9----29.75- 69.8 57.9----
2024-06-16 03:36 pm W 25.1 28.9----29.75- 69.8 58.1----
2024-06-16 03:30 pm W 26.0 29.9------ 69.6 58.1----
2024-06-16 03:24 pm W 27.0 31.1------ 69.1 58.3----
2024-06-16 03:18 pm W 29.9 35.0----29.75- 66.7 58.3----
2024-06-16 03:12 pm W 31.1 35.0----29.75- 65.5 58.3----
2024-06-16 03:06 pm W 28.9 33.0----29.75- 65.7 58.5----
2024-06-16 03:00 pm W 28.9 32.1----29.75-0.06 65.8 58.5----
2024-06-16 02:54 pm W 27.0 29.9----29.76- 67.6 58.5----
2024-06-16 02:48 pm W 25.1 29.9----29.76-------
2024-06-16 02:42 pm W 26.0 31.1----29.76-------
2024-06-16 02:36 pm W 28.0 31.1----29.76-------
2024-06-16 02:30 pm W 25.1 28.9----29.77- 69.8 58.5----
2024-06-16 02:24 pm W 25.1 28.0----29.77- 70.7 58.6----
2024-06-16 02:18 pm W 25.1 27.0----29.77-- 58.6----
2024-06-16 02:12 pm W 25.1 28.9----29.77-- 58.6----
2024-06-16 02:06 pm W 28.0 31.1----29.77-- 58.6----
2024-06-16 02:00 pm W 27.0 32.1----29.77-0.06 69.1 58.6----
2024-06-16 01:54 pm W 31.1 33.0----29.77- 65.8 58.6----
2024-06-16 01:48 pm W 27.0 29.9----29.77-- 58.6----
2024-06-16 01:42 pm W 28.0 33.0----29.78-- 58.6----
2024-06-16 01:36 pm W 31.1 35.0----29.77-- 58.6----
2024-06-16 01:30 pm W 31.1 34.0----29.77- 64.8 58.6----
2024-06-16 01:24 pm W 25.1 28.0----29.78- 68.0 58.8----
2024-06-16 01:18 pm W 25.1 29.9----29.78- 69.8 58.6----
2024-06-16 01:12 pm W 27.0 31.1----29.78- 67.5 58.6----
2024-06-16 01:06 pm W 22.9 25.1----29.78- 69.8 58.6----
2024-06-16 01:00 pm W 21.0 25.1----29.79-0.06 70.7 58.6----
2024-06-16 12:54 pm W 22.0 25.1----29.79- 70.2 58.6----
2024-06-16 12:48 pm W 15.9 20.0----29.79- 74.3 58.6----
2024-06-16 12:42 pm W 19.0 25.1----29.80- 72.7 58.5----
2024-06-16 12:36 pm W 22.9 27.0----29.79- 68.7 58.5----
2024-06-16 12:30 pm W 20.0 22.9----29.80-- 58.3----
2024-06-16 12:24 pm W 19.0 22.0----29.80-- 58.3----
2024-06-16 12:18 pm W 17.1 20.0----29.80- 72.1 58.3----
2024-06-16 12:12 pm W 14.0 15.9----29.80- 74.3 58.3----
2024-06-16 12:06 pm W 8.0 12.0----29.81- 77.9 58.3----
2024-06-16 12:00 pmWNW 5.1 8.9----29.81-0.04- 58.3----
2024-06-16 11:54 amENE 1.9 1.9----29.81-- 58.3----
2024-06-16 11:48 amENE 1.0 7.0----29.82-- 58.3----
2024-06-16 11:42 amESE 1.9 2.9----29.82-- 58.3----
2024-06-16 11:36 amSSE 1.0 4.1----29.82-- 58.3----
2024-06-16 11:30 am E 2.9 4.1----29.82- 71.4 58.3----
2024-06-16 11:24 am SE 1.9 4.1----29.82- 68.9 58.3----
2024-06-16 11:18 am- 0.0 4.1----29.82- 68.4 58.3----
2024-06-16 11:12 am- 0.0 2.9----29.83- 65.5 58.3----
2024-06-16 11:06 am- 0.0 2.9----29.83- 64.0 58.3----
2024-06-16 11:00 am- 0.0 1.9----29.83-0.03 63.9 58.3----
2024-06-16 10:54 am E 1.0 1.9----29.83- 61.9 58.3----
2024-06-16 10:48 am NE 1.9 2.9----29.83- 61.2 58.3----
2024-06-16 10:42 am- 0.0 1.9----29.83- 61.5 58.1----
2024-06-16 10:36 am- 0.0 1.9----29.83- 60.6 58.1----
2024-06-16 10:30 am NE 1.9 2.9----29.83- 59.4 58.1----
2024-06-16 10:24 am- 0.0 1.9----29.84- 59.7 58.1----
2024-06-16 10:18 am E 1.0 2.9----29.84- 58.8 58.1----
2024-06-16 10:12 amENE 1.9 2.9----29.84- 58.8 58.1----
2024-06-16 10:06 amENE 1.0 1.9----29.85- 58.8 58.1----
2024-06-16 10:00 am NE 1.9 2.9----29.85+0.00 58.3 58.1----
2024-06-16 09:54 am NE 1.9 2.9----29.85- 57.4 58.1----
2024-06-16 09:48 amNNE 1.9 4.1----29.85-- 58.1----
2024-06-16 09:42 amNNE 1.9 2.9----29.85-- 58.1----
2024-06-16 09:36 am E 1.9 1.9----29.85-- 58.1----
2024-06-16 09:30 am SE 1.9 2.9----29.85-- 58.1----
2024-06-16 09:24 amSSE 1.9 2.9----29.85-- 58.1----
2024-06-16 09:18 amSSE 1.9 2.9----29.85- 56.1-----
2024-06-16 09:12 amSSE 1.0 1.9----29.85- 56.8-----
2024-06-16 09:06 amESE 1.0 1.9----29.85- 57.2-----
2024-06-16 09:00 am SE 1.0 1.9----29.85+0.01 57.0 58.1----
2024-06-16 08:54 am- 0.0 2.9----29.86- 57.6 58.1----
2024-06-16 08:48 am E 1.9 2.9----29.86-- 58.1----
2024-06-16 08:42 amSSE 1.9 2.9----29.86-- 58.1----
2024-06-16 08:36 amESE 1.9 2.9----29.86-- 58.3----
2024-06-16 08:30 am SE 1.9 2.9----29.86- 55.4 58.3----
2024-06-16 08:24 am SE 1.9 2.9----29.86- 55.6 58.3----
2024-06-16 08:18 amSSE 1.9 4.1----29.86-- 58.3----
2024-06-16 08:12 amSSE 2.9 5.1----29.86-- 58.5----
2024-06-16 08:06 amSSE 2.9 4.1----29.86-- 58.5----
2024-06-16 08:00 amSSE 1.9 2.9----29.86+0.01 55.4 58.5----
2024-06-16 07:54 amSSE 1.9 1.9----29.85- 55.8 58.5----
2024-06-16 07:48 am SE 1.0 1.9----29.85-- 58.5----
2024-06-16 07:42 am E 1.0 1.9----29.85-- 58.5----
2024-06-16 07:36 am E 1.9 1.9----29.85-- 58.5----
2024-06-16 07:30 am-------29.85-- 58.6----
2024-06-16 07:24 am-------29.85-- 58.6----
2024-06-16 07:18 am NE 1.0 1.9----29.85- 55.8 58.6----
2024-06-16 07:12 am NE 1.0 1.9----29.85- 55.4 58.6----
2024-06-16 07:06 am NE 1.0 1.9----29.85- 55.0 58.6----
2024-06-16 07:00 am NE 1.9 2.9----29.85+0.00- 58.6----
2024-06-16 06:54 amNNE 1.9 2.9----29.85-- 58.8----
2024-06-16 06:48 amNNE 1.9 2.9----29.85- 54.1 58.8----
2024-06-16 06:42 am- 0.0 1.9----29.85- 54.5 58.8----
2024-06-16 06:36 am N 1.9 2.9----29.85- 53.4 58.8----
2024-06-16 06:30 am N 1.9 2.9----29.85- 53.2 58.8----
2024-06-16 06:24 am N 1.9 2.9----29.85- 52.5 58.8----
2024-06-16 06:18 amNNW 1.9 1.9----29.85-- 58.8----
2024-06-16 06:12 am N 1.0 1.9----29.84-- 58.8----
2024-06-16 06:06 amNNW 1.0 1.9----29.85-- 58.8----
2024-06-16 06:00 am N 1.0 1.9----29.85+0.00 51.6 58.8----
2024-06-16 05:54 am- 0.0 1.9----29.85- 51.3 58.8----
2024-06-16 05:48 am N 1.0 1.9----29.85- 51.6 58.8----
2024-06-16 05:42 am NE 1.0 1.9----29.85- 51.4 58.8----
2024-06-16 05:36 am N 1.0 1.9----29.85- 51.4 58.8----
2024-06-16 05:30 amNNE 1.0 1.9----29.85- 51.8 58.8----
2024-06-16 05:24 am- 0.0 1.0----29.85- 52.0 58.8----
2024-06-16 05:18 am-------29.85- 52.0 58.8----
2024-06-16 05:12 am-------29.85- 52.3 58.8----
2024-06-16 05:06 am-------29.85- 52.0 58.8----
2024-06-16 05:00 am- 0.0 1.9----29.85-0.02 51.6 58.8----
2024-06-16 04:54 am NW 1.9 1.9----29.85- 51.8 58.8----
2024-06-16 04:48 amWNW 1.0 1.9----29.85- 52.2 58.8----
2024-06-16 04:42 am NW 1.0 1.9----29.85- 52.0 58.8----
2024-06-16 04:36 am W 1.0 1.9----29.85- 52.0 58.8----
2024-06-16 04:30 amNNW 1.9 2.9----29.85- 52.0 58.8----
2024-06-16 04:24 am- 0.0 1.9----29.85- 52.3 58.8----
2024-06-16 04:18 am- 0.0 1.9----29.85-- 58.8----
2024-06-16 04:12 am- 0.0 1.9----29.85-- 58.8----
2024-06-16 04:06 am N 1.9 2.9----29.85-- 58.8----
2024-06-16 04:00 am N 1.9 2.9----29.85-- 58.8----
2024-06-16 03:54 am N 1.9 4.1----29.85-- 58.8----
2024-06-16 03:48 amNNE 2.9 4.1----29.85-- 58.8----
2024-06-16 03:42 am- 0.0 1.9----29.85-- 58.8----
2024-06-16 03:36 am S 1.9 2.9----29.85-- 58.8----
2024-06-16 03:30 am S 1.9 2.9----29.85-- 58.8----
2024-06-16 03:24 am SW 1.9 4.1----29.85-- 58.8----
2024-06-16 03:18 amWSW 1.9 2.9----29.85- 53.4 58.8----
2024-06-16 03:12 am W 1.0 4.1----29.85- 53.1 58.8----
2024-06-16 03:06 am NW 1.9 2.9----29.85- 53.1 58.8----
2024-06-16 03:00 am- 0.0 1.0----29.85-0.04- 58.8----
2024-06-16 02:54 am- 0.0 2.9----29.85-- 58.8----
2024-06-16 02:48 am N 1.9 1.9----29.85- 53.2 58.8----
2024-06-16 02:42 am- 0.0 0.0----29.86- 53.4 58.8----
2024-06-16 02:36 am- 0.0 1.9----29.86- 53.8 58.6----
2024-06-16 02:30 am SW 1.0 1.9----29.86- 53.4 58.6----
2024-06-16 02:24 am W 1.0 1.9----29.86- 53.2 58.6----
2024-06-16 02:18 amNNW 1.9 2.9----29.86-- 58.6----
2024-06-16 02:12 amNNW 1.9 2.9----29.86-- 58.6----
2024-06-16 02:06 am N 1.0 1.9----29.86-- 58.6----
2024-06-16 02:00 am N 1.0 1.9----29.87-0.03- 58.6----
2024-06-16 01:54 am- 0.0 1.0----29.86-- 58.6----
2024-06-16 01:48 am- 0.0 1.9----29.87- 53.8 58.6----
2024-06-16 01:42 am- 0.0 1.9----29.87- 54.0 58.5----
2024-06-16 01:36 am- 0.0 1.9----29.87- 54.0 58.5----
2024-06-16 01:30 am- 0.0 1.0----29.87- 54.1 58.5----
2024-06-16 01:24 am- 0.0 1.9----29.87- 54.3 58.5----
2024-06-16 01:18 amNNW 1.0 1.9----29.88- 54.3 58.3----
2024-06-16 01:12 amNNW 1.0 1.9----29.88- 54.3 58.3----
2024-06-16 01:06 am N 1.9 1.9----29.88- 54.5 58.3----
2024-06-16 01:00 am- 0.0 1.9------ 55.0 58.3----
2024-06-16 12:54 am- 0.0 1.9------ 55.2 58.3----
2024-06-16 12:48 amWSW 1.0 1.9----29.88- 55.2 58.3----
2024-06-16 12:42 amWSW 1.9 2.9----29.88- 55.2 58.1----
2024-06-16 12:36 am W 2.9 2.9----29.89- 55.0 58.1----
2024-06-16 12:30 am W 1.0 1.9----29.89- 54.9 58.1----
2024-06-16 12:24 am- 0.0 1.9----29.89- 54.7 58.1----
2024-06-16 12:18 am- 0.0 1.9----29.89- 55.0 58.1----
2024-06-16 12:12 am- 0.0 1.0----29.89- 55.0 58.1----
2024-06-16 12:06 am- 0.0 1.9----29.89- 55.2 58.1----
2024-06-16 12:00 am- 0.0 1.0----29.89+0.02 55.2 58.1----
2024-06-15 11:54 pm- 0.0 1.0----29.89- 55.2 58.1----
2024-06-15 11:48 pm S 1.0 1.9----29.89- 55.6 57.9----
2024-06-15 11:42 pm- 0.0 2.9----29.89- 55.6 57.9----
2024-06-15 11:36 pm S 1.0 1.9----29.89- 55.8 57.9----
2024-06-15 11:30 pm- 0.0 1.9----29.89- 55.4 57.9----
2024-06-15 11:24 pm N 1.9 1.9----29.89- 55.6 57.9----
2024-06-15 11:18 pm- 0.0 1.0----29.90- 55.9 57.9----
2024-06-15 11:12 pm- 0.0 1.0----29.90- 55.9 57.9----
2024-06-15 11:06 pm NW 1.0 1.9----29.90- 56.1 57.9----
2024-06-15 11:00 pmNNW 1.0 1.9----29.90+0.04 56.5 57.9----
2024-06-15 10:54 pm- 0.0 1.9----29.90- 56.7 57.7----
2024-06-15 10:48 pm- 0.0 1.9----29.90-- 57.7----
2024-06-15 10:42 pm W 1.0 1.9----29.90-- 57.6----
2024-06-15 10:36 pm- 0.0 1.9----29.90-- 57.4----
2024-06-15 10:30 pmWSW 1.0 1.9------ 57.2 57.4----
2024-06-15 10:24 pm- 0.0 1.9------ 57.6 57.4----
2024-06-15 10:18 pm--------- 57.7-----
2024-06-15 10:12 pm--------- 57.6-----
2024-06-15 10:06 pm--------- 57.6-----
2024-06-15 10:00 pmNNW 1.9 2.9----29.89+0.05 57.6 57.2----
2024-06-15 09:54 pm N 1.9 2.9----29.89- 57.7 57.2----
2024-06-15 09:48 pm N 1.9 2.9----29.89- 58.1 57.2----
2024-06-15 09:42 pm N 2.9 4.1----29.89- 58.1 57.0----
2024-06-15 09:36 pm N 1.9 4.1----29.88- 57.9 57.0----
2024-06-15 09:30 pm N 4.1 4.1----29.88- 57.9 57.0----
2024-06-15 09:24 pm N 4.1 5.1----29.88- 58.5 56.8----
2024-06-15 09:18 pmNNE 2.9 4.1----29.88-- 56.8----
2024-06-15 09:12 pm N 1.9 5.1----29.88-- 56.8----
2024-06-15 09:06 pm N 2.9 4.1----29.87-- 56.8----
2024-06-15 09:00 pm-------29.87+0.04 59.5-----
2024-06-15 08:54 pm-------29.87- 60.1-----
2024-06-15 08:48 pm NE 6.0 7.0----29.86- 60.6 56.7----
2024-06-15 08:42 pmNNE 4.1 5.1----29.86- 61.2 56.7----
2024-06-15 08:36 pmNNE 4.1 8.0----29.86- 61.9 56.7----
2024-06-15 08:30 pm NE 5.1 7.0----29.86- 62.2 56.7----
2024-06-15 08:24 pmENE 5.1 6.0----29.86- 62.4 56.5----
2024-06-15 08:18 pm NE 4.1 5.1----29.86- 63.0 56.5----
2024-06-15 08:12 pm NE 4.1 5.1----29.86- 63.5 56.5----
2024-06-15 08:06 pm NE 4.1 4.1----29.86- 63.7 56.5----
2024-06-15 08:00 pm NE 1.9 2.9----29.86+0.03 64.8 56.5----
2024-06-15 07:54 pm- 0.0 1.9----29.85- 65.5 56.5----